Location: Unspecified
(0.0000°N, 0.0000°E)
Time: 23:30:17
(UTC+00:00)

deb NNS O-18 - Pass Details

Date: 12 November 2024
Orbit: 1009 x 1291 km, 89.8° (Epoch: 29 November)

Event Time Altitude Azimuth Distance (km) Brightness Sun altitude
Rises 04:04:20 0° 180° (S) 4,113 ? -23.7°
Reaches altitude 10° 04:07:04 10° 181° (S) 3,109 ? -23.0°
Maximum altitude 04:14:12 76° 265° (W) 1,158 ? -21.4°
Drops below altitude 10° 04:20:52 10° 351° (N) 2,900 ? -19.8°
Sets 04:23:20 0° 353° (N) 3,821 ? -19.2°
